CZ-6A DEB, 56611

Orbit data source: Space-Track

CZ-6A DEB, 56611 is space debris in SSO originally from a launch on Fri, 11 Nov 2022 UTC launched from the Taiyaun Space Center, China (TSC). Debris objects in space refer to the collection of defunct objects orbiting the Earth. Examples of debris include non-operational satellites, rocket bodies, and fragments generated from explosions, collisions, or faulty payload assembly.

Loading next visibility...
Identifier
56611, 2022-151AEK
Orbit
SSO
Country
Flag of CNCN / PRC
Related business
Manufacturer
SAST
Mission
Spacecraft
Bus & Motor
Unknown
Mass
Unknown
Launch date (UTC)
2022-11-11 (4 years ago)
Launch vehicle
Unknown
Launch site
Taiyaun Space Center, China (TSC)
Object type
Payload
Rocket body
Debris
Shape & HBR
Unknown shape, 0.1 m
Radar Cross Section
Medium (>0.1 m² and <1 m²)

Expand to show TLE details & history
Last TLE update: 1 day ago

TLE from 1 day ago
0 CZ-6A DEB
1 56611U 22151AEK 26207.74451128  .00000115  00000-0  87935-4 0  9992
2 56611  98.8249 204.8222 0041366 223.2401 136.5520 14.10685286167529
Epoch: 2026-07-26T17:52Z
TLE epoch observation values (Epoch: 2026-07-26T17:52:05.774Z)
Latitude
-0.00006°
Longitude
-7.63989°
Altitude
881.717 km
Speed
7.4 km/s
True Right ascension
13h 39m 17s
True Declination
0° 00' 00"
Sunlit
Object was in daylight at epoch
Visualization orbit readout
Latitude
Unknown
Longitude
Unknown
Altitude
Unknown
Speed
Unknown
Apparent Right ascension
Unknown
Apparent Declination
Unknown
Sunlit
N/A
Visualization observer readout
Local Sidereal Time
14:25:46
Azimuth
Unknown
Elevation
Unknown
Doppler factor
Unknown
Orbital elements
Apogee altitude
884.121 km
Perigee altitude
824.287 km
Semi-major axis
7,232.341 km
Eccentricity
0.00414
Inclination
98.8249°
RAAN
204.8222°
Arg. of periapsis
223.2401°
True anomaly
136.87676°
Mean anomaly
136.552°
Eccentric anomaly
136.7145°
Mean motion
3.52878 °/min
Orbital period
102.02 mins
BSTAR
0.000087935
Loading maneuver chart data...
Computing Atmospheric mass density...

Documentation

Showing up to 5 results
|